Showing default

HODOYOSHI 3, 40015

Orbit data source: Space-Track

HODOYOSHI 3, 40015 is a payload satellite owned by Tokyo (JP) in SSO that was launched on Thu, 19 Jun 2014 UTC via a DNEPR launch vehicle from the Orenburg, Russia (OREN). Payload-class satellites include a variety of spacecraft equipped with specific instruments for various scientific and technological missions. These include communications satellites like Starlink; space stations such as the ISS; scientific satellites like the Hubble; Earth observation satellites from companies like Planet Labs, Umbra, and HawkEye 360; GPS; miniature CubeSats for education and research; and military/defense satellites.

Loading next visibility...
Identifier
40015, 2014-033F
Orbit
SSO
Country
Flag of JPJP / JPN
Related business
Manufacturer
AXELSPACE
Mission
Operational Commercial Imaging
Bus & Motor
HODOYOSHI, Unknown motor
Mass
58 kg wet, 58 kg dry
Launch date (UTC)
2014-06-19 (12 years ago)
Launch vehicle
DNEPR
Launch site
Orenburg, Russia (OREN)
Object type
Payload
Rocket body
Debris
Shape & HBR
Box + 2 Pan, 0.8 m
Radar Cross Section
0.614 m², Medium (>0.1 m² and < 1m²)

Expand to show TLE details & history
Last TLE update: 8 hours ago

TLE from 8 hours ago
0 HODOYOSHI 3
1 40015U 14033F   26124.19498191  .00001330  00000-0  15932-3 0  9998
2 40015  97.6379 289.0195 0033961 137.6821 222.7024 14.85292721641097
Epoch: 2026-05-04T04:40Z
TLE epoch observation values (Epoch: 2026-05-04T04:40:46.437Z)
Latitude
0.00002°
Longitude
-3.26166°
Altitude
633.192 km
Speed
7.532 km/s
True Right ascension
19h 16m 04s
True Declination
0° 00' 00"
Sunlit
Object was in daylight at epoch
Visualization orbit readout
Latitude
Unknown
Longitude
Unknown
Altitude
Unknown
Speed
Unknown
Apparent Right ascension
Unknown
Apparent Declination
Unknown
Sunlit
N/A
Visualization observer readout
Local Sidereal Time
20:14:17
Azimuth
Unknown
Elevation
Unknown
Doppler factor
Unknown
Orbital elements
Apogee altitude
633.421 km
Perigee altitude
585.958 km
Semi-major axis
6,987.826 km
Eccentricity
0.0034
Inclination
97.6379°
RAAN
289.0195°
Arg. of periapsis
137.6821°
True anomaly
222.43929°
Mean anomaly
222.7024°
Eccentric anomaly
222.57077°
Mean motion
3.71561 °/min
Orbital period
96.89 mins
BSTAR
0.00015932
Loading maneuver chart data...
Computing Atmospheric mass density...
Loading historical data...
Loading historical data...
Loading historical data...
Loading historical data...
Loading historical data...
Loading historical data...
Loading historical data...

Documentation

Showing up to 5 results
|